Location: Briis
(48.6240°N, 2.1211°E)
Time: 10:20:43
(UTC+00:00)

Cosmos 2228 Rocket - Pass Details

Date: 25 September 2020
Orbit: 619 x 651 km, 82.5° (Epoch: 25 October)

Event Time Altitude Azimuth Distance (km) Brightness Sun altitude
Exits shadow 04:10:43 22° 290° (WNW) 1,391 4.4 -15.8°
Maximum altitude 04:10:49 22° 292° (WNW) 1,390 4.4 -15.8°
Drops below altitude 10° 04:14:15 10° 343° (NNW) 2,009 5.7 -15.3°
Sets 04:16:58 0° 359° (N) 2,927 6.7 -14.8°
